Hourly Data Report for October 13, 2016

All times are specified in Local Standard Time (LST). Add 1 hour to adjust for Daylight Saving Time where and when it is observed.

MONCTON INTL A
NEW BRUNSWICK

46°06'44.000" N
64°40'43.000" W
70.70 m
8103201
71705
YQM

Download Data

Hourly Data (October 2016)
Hourly Data Report for October 13, 2016
Temp Definition
°C
Dew Point Temp Definition
°C
Rel Hum Definition
%
Wind Dir Definition
10's deg

Wind Spd Definition
km/h
Visibility Definition
km
Stn Press Definition
kPa
Hmdx Definition


Wind Chill Definition


Weather Definition


TIME
00:00 Legend Double Dagger 7.8 4.0 77 19 15 24.1 101.66     LegendNANA
01:00 Legend Double Dagger 7.2 4.2 81 17 12 24.1 101.60     LegendNANA
02:00 Legend Double Dagger 7.0 5.2 88 17 11 24.1 101.53     Clear
03:00 Legend Double Dagger 7.2 6.5 95 18 12 24.1 101.47     LegendNANA
04:00 Legend Double Dagger 7.3 6.9 97 17 13 24.1 101.41     LegendNANA
05:00 Legend Double Dagger 7.7 7.3 97 16 13 24.1 101.37     Clear
06:00 Legend Double Dagger 7.3 6.9 97 16 12 24.1 101.36     LegendNANA
07:00 Legend Double Dagger 7.2 6.8 97 17 7 24.1 101.34     LegendNANA
08:00 Legend Double Dagger 10.7 9.0 89 16 13 24.1 101.31     Mainly Clear
09:00 Legend Double Dagger 12.5 10.1 85 17 14 24.1 101.29     LegendNANA
10:00 Legend Double Dagger 14.7 10.4 75 18 21 19.3 101.20     LegendNANA
11:00 Legend Double Dagger 16.8 9.3 61 19 16 24.1 101.11     Mainly Clear
12:00 Legend Double Dagger 17.8 8.5 54 17 25 24.1 101.02     LegendNANA
13:00 Legend Double Dagger 18.5 7.4 48 19 20 24.1 100.90     LegendNANA
14:00 Legend Double Dagger 18.4 9.8 57 18 29 24.1 100.82     Mainly Clear
15:00 Legend Double Dagger 18.5 9.9 57 19 26 24.1 100.75     LegendNANA
16:00 Legend Double Dagger 18.1 10.6 61 19 30 24.1 100.68     LegendNANA
17:00 Legend Double Dagger 17.3 10.7 65 20 19 24.1 100.67     Mainly Clear
18:00 Legend Double Dagger 15.0 10.5 74 19 14 24.1 100.68     LegendNANA
19:00 Legend Double Dagger 13.6 10.4 81 18 13 24.1 100.64     LegendNANA
20:00 Legend Double Dagger 13.5 10.5 82 17 14 24.1 100.64     Mostly Cloudy
21:00 Legend Double Dagger 13.7 10.4 80 17 8 24.1 100.65     LegendNANA
22:00 Legend Double Dagger 13.3 10.7 84 15 9 24.1 100.60     LegendNANA
23:00 Legend Double Dagger 13.1 11.0 87 15 6 24.1 100.52     Mostly Cloudy

Notes on Data Quality.

Legend

  • E = Estimated
  • M = Missing
  • NA = Not Available
  • ‡ = Partner data that is not subject to review by the National Climate Archives
Date modified: